Terminal Aerodrome Forecast
Issued by NWS Denver/Boulder, CO

Home | Current Version | Previous Version | Text Only | Print | Product List | Glossary On
Versions: 1 2 3 4 5 6 7 8 9 10 11 12 13 14 15 16 17 18 19 20 21 22 23 24 25 26 27 28 29 30 31 32 33 34 35 36 37 38 39 40 41 42 43 44 45 46 47 48 49 50
000
FTUS45 KBOU 291953 AAB
TAFDEN
TAF AMD
KDEN 291953Z 2920/3024 13015G30KT P6SM VCTS BKN060CB BKN100
      TEMPO 2921/2924 VRB20G30KT 5SM TSRA BKN050CB
     FM300000 10010KT 5SM TSRA BKN040CB OVC060
      TEMPO 3000/3004 3SM +SHRA OVC030
     FM300400 06010KT 5SM -SHRA BKN030 OVC050
      TEMPO 3004/3007 3SM -TSRA OVC020CB
     FM300700 06007KT P6SM VCTS SCT025CB OVC040
      TEMPO 3007/3011 5SM SHRA OVC025
     FM301100 03007KT P6SM SCT020 BKN050
      TEMPO 3011/3015 -SHRA BKN020=

USA.gov is the U.S. government's official web portal to all federal, state and local government web resources and services.